| time (UTC) | temp C | wind direction | speed KPH | gust KPH | rain 1hr cm | rain 24hr cm | rain mn cm | humidity % | barometer mb |
| 20260504193517 | 26 | 45 | 3.2 | 11.3 | 0.00 | 0.00 | 0.00 | 42 | 1014.2 |
| 20260504192517 | 26 | 45 | 1.6 | 9.7 | 0.00 | 0.00 | 0.00 | 40 | 1014.3 |
| 20260504191537 | 26 | 248 | 1.6 | 4.8 | 0.00 | 0.00 | 0.00 | 39 | 1014.5 |
| 20260504190537 | 26 | 293 | 3.2 | 9.7 | 0.00 | 0.00 | 0.00 | 41 | 1014.7 |
| 20260504185517 | 25 | 23 | 1.6 | 8.0 | 0.00 | 0.00 | 0.00 | 42 | 1014.8 |
| 20260504184658 | 25 | 315 | 1.6 | 4.8 | 0.00 | 0.00 | 0.00 | 43 | 1014.9 |
| 20260504183637 | 25 | 113 | 1.6 | 8.0 | 0.00 | 0.00 | 0.00 | 44 | 1014.8 |
| 20260504182517 | 25 | 315 | 1.6 | 6.4 | 0.00 | 0.00 | 0.00 | 42 | 1014.9 |
| 20260504181517 | 24 | 315 | 1.6 | 4.8 | 0.00 | 0.00 | 0.00 | 45 | 1015.0 |
| 20260504180557 | 23 | 293 | 1.6 | 6.4 | 0.00 | 0.00 | 0.00 | 43 | 1015.1 |
| 20260504175517 | 24 | 315 | 3.2 | 11.3 | 0.00 | 0.00 | 0.00 | 47 | 1015.0 |
| 20260504174537 | 23 | 315 | 1.6 | 4.8 | 0.00 | 0.00 | 0.00 | 46 | 1015.2 |
| 20260504173517 | 23 | 90 | 1.6 | 9.7 | 0.00 | 0.00 | 0.00 | 45 | 1015.2 |
| 20260504172537 | 23 | 315 | 1.6 | 6.4 | 0.00 | 0.00 | 0.00 | 47 | 1015.4 |
| 20260504171517 | 23 | 45 | 1.6 | 8.0 | 0.00 | 0.00 | 0.00 | 44 | 1015.3 |
| 20260504170517 | 23 | 45 | 1.6 | 8.0 | 0.00 | 0.00 | 0.00 | 45 | 1015.7 |
| 20260504150516 | 20 | 293 | 1.6 | 8.0 | 0.00 | 0.00 | 0.00 | 49 | 1017.0 |
| 20260504140516 | 16 | 0.0 | 1.6 | 0.00 | 0.00 | 0.00 | 68 | 1016.7 | |
| 20260504130516 | 12 | 0.0 | 1.6 | 0.00 | 0.00 | 0.00 | 84 | 1016.6 | |
| 20260504110556 | 2 | 0.0 | 0.0 | 0.00 | 0.00 | 0.00 | 95 | 1016.6 | |
| 20260504100536 | 2 | 0.0 | 0.0 | 0.00 | 0.00 | 0.00 | 94 | 1016.5 | |
| 20260504081516 | 3 | 0.0 | 0.0 | 0.00 | 0.00 | 0.00 | 92 | 1016.4 | |
| 20260504080516 | 3 | 0.0 | 0.0 | 0.00 | 0.00 | 0.00 | 92 | 1016.3 | |
| 20260504050517 | 4 | 0.0 | 0.0 | 0.00 | 0.00 | 0.00 | 89 | 1016.5 | |
| 20260504045517 | 4 | 0.0 | 0.0 | 0.00 | 0.00 | 0.00 | 89 | 1016.4 | |
| 20260504044517 | 4 | 0.0 | 0.0 | 0.00 | 0.00 | 0.00 | 88 | 1016.3 | |
| 20260504043537 | 4 | 0.0 | 0.0 | 0.00 | 0.00 | 0.00 | 88 | 1016.2 | |
| 20260504042558 | 4 | 0.0 | 0.0 | 0.00 | 0.00 | 0.00 | 88 | 1016.1 | |
| 20260504041558 | 4 | 0.0 | 0.0 | 0.00 | 0.00 | 0.00 | 87 | 1016.2 | |
| 20260504040658 | 4 | 0.0 | 0.0 | 0.00 | 0.00 | 0.00 | 87 | 1016.2 | |
| 20260504035516 | 4 | 0.0 | 0.0 | 0.00 | 0.00 | 0.00 | 86 | 1016.2 | |
| 20260504034616 | 5 | 0.0 | 0.0 | 0.00 | 0.00 | 0.00 | 85 | 1016.1 | |
| 20260504033516 | 5 | 0.0 | 0.0 | 0.00 | 0.00 | 0.00 | 84 | 1016.3 | |
| 20260504032536 | 5 | 0.0 | 0.0 | 0.00 | 0.00 | 0.00 | 84 | 1016.2 | |
| 20260504031556 | 5 | 0.0 | 0.0 | 0.00 | 0.00 | 0.00 | 84 | 1016.3 | |
| 20260504030536 | 5 | 0.0 | 0.0 | 0.00 | 0.00 | 0.00 | 83 | 1016.5 | |
| 20260504025516 | 5 | 0.0 | 0.0 | 0.00 | 0.00 | 0.00 | 83 | 1016.4 | |
| 20260504024516 | 6 | 0.0 | 0.0 | 0.00 | 0.00 | 0.00 | 82 | 1016.3 | |
| 20260504023516 | 6 | 0.0 | 0.0 | 0.00 | 0.00 | 0.00 | 81 | 1016.1 | |
| 20260504022516 | 6 | 0.0 | 0.0 | 0.00 | 0.00 | 0.00 | 80 | 1016.0 | |
| 20260504021536 | 6 | 0.0 | 0.0 | 0.00 | 0.00 | 0.00 | 79 | 1015.9 | |
| 20260504020516 | 6 | 0.0 | 0.0 | 0.00 | 0.00 | 0.00 | 78 | 1015.9 | |
| 20260504015536 | 6 | 0.0 | 0.0 | 0.00 | 0.00 | 0.00 | 76 | 1015.7 | |
| 20260504014616 | 7 | 0.0 | 0.0 | 0.00 | 0.00 | 0.00 | 75 | ||
| 20260504013616 | 7 | 0.0 | 0.0 | 0.00 | 0.00 | 0.00 | 73 | ||
| 20260504012536 | 7 | 0.0 | 0.0 | 0.00 | 0.00 | 0.00 | 72 | ||
| 20260504011518 | 8 | 0.0 | 0.0 | 0.00 | 0.00 | 0.00 | 69 | ||
| 20260504010518 | 8 | 0.0 | 0.0 | 0.00 | 0.00 | 0.00 | 68 | ||
| 20260504005638 | 9 | 0.0 | 0.0 | 0.00 | 0.00 | 0.00 | 66 | ||
| 20260504004538 | 10 | 0.0 | 0.0 | 0.00 | 0.00 | 0.00 | 65 | ||
| 20260504003536 | 11 | 0.0 | 0.0 | 0.00 | 0.00 | 0.00 | 61 | ||
| 20260504002517 | 11 | 0.0 | 0.0 | 0.00 | 0.00 | 0.00 | 60 | ||
| 20260504001517 | 12 | 0.0 | 0.0 | 0.00 | 0.00 | 0.00 | 55 | ||
| 20260504000517 | 13 | 0.0 | 0.0 | 0.00 | 0.00 | 0.00 | 51 | ||
| 20260503235517 | 15 | 0.0 | 0.0 | 0.00 | 0.00 | 0.00 | 49 | ||
| 20260503234537 | 15 | 0.0 | 0.0 | 0.00 | 0.00 | 0.00 | 45 | ||
| 20260503233517 | 16 | 0.0 | 0.0 | 0.00 | 0.00 | 0.00 | 42 | ||
| 20260503232617 | 17 | 0.0 | 3.2 | 0.00 | 0.00 | 0.00 | 38 | ||
| 20260503231617 | 18 | 0.0 | 0.0 | 0.00 | 0.00 | 0.00 | 38 | ||
| 20260503230517 | 20 | 0.0 | 1.6 | 0.00 | 0.00 | 0.00 | 35 | ||
| 20260503225517 | 20 | 0.0 | 0.0 | 0.00 | 0.00 | 0.00 | 35 | ||
| 20260503224517 | 21 | 0.0 | 1.6 | 0.00 | 0.00 | 0.00 | 32 | ||
| 20260503223517 | 20 | 0.0 | 1.6 | 0.00 | 0.00 | 0.00 | 34 | ||
| 20260503222537 | 20 | 0.0 | 6.4 | 0.00 | 0.00 | 0.00 | 33 | ||
| 20260503221537 | 20 | 293 | 1.6 | 3.2 | 0.00 | 0.00 | 0.00 | 33 | |
| 20260503220537 | 21 | 0.0 | 3.2 | 0.00 | 0.00 | 0.00 | 30 | ||
| 20260503215517 | 21 | 0.0 | 3.2 | 0.00 | 0.00 | 0.00 | 31 | ||
| 20260503214517 | 20 | 0.0 | 4.8 | 0.00 | 0.00 | 0.00 | 33 | ||
| 20260503213537 | 20 | 23 | 1.6 | 6.4 | 0.00 | 0.00 | 0.00 | 32 | |
| 20260503212537 | 21 | 293 | 1.6 | 8.0 | 0.00 | 0.00 | 0.00 | 29 | |
| 20260503211517 | 20 | 0.0 | 1.6 | 0.00 | 0.00 | 0.00 | 30 | ||
| 20260503210637 | 20 | 270 | 1.6 | 6.4 | 0.00 | 0.00 | 0.00 | 32 | |
| 20260503205517 | 20 | 315 | 1.6 | 6.4 | 0.00 | 0.00 | 0.00 | 32 | |
| 20260503204517 | 20 | 248 | 1.6 | 6.4 | 0.00 | 0.00 | 0.00 | 31 | |
| 20260503203537 | 19 | 45 | 1.6 | 4.8 | 0.00 | 0.00 | 0.00 | 34 | |
| 20260503202517 | 20 | 293 | 3.2 | 11.3 | 0.00 | 0.00 | 0.00 | 30 | |
| 20260503201537 | 20 | 248 | 1.6 | 6.4 | 0.00 | 0.00 | 0.00 | 31 | |
| 20260503200537 | 19 | 0 | 1.6 | 6.4 | 0.00 | 0.00 | 0.00 | 32 | |
| 20260503195517 | 19 | 293 | 1.6 | 6.4 | 0.00 | 0.00 | 0.00 | 31 | |
| 20260503194517 | 18 | 45 | 1.6 | 8.0 | 0.00 | 0.00 | 0.00 | 32 |